TimeWET,TemperatureF,Dew PointF,Humidity,Sea Level PressureIn,VisibilityMPH,Wind Direction,Wind SpeedMPH,Gust SpeedMPH,PrecipitationIn,Events,Conditions,WindDirDegrees,DateUTC
12:00 AM,71,67,84,29.85,5,SW,5.8,,,Rain,Light Rain,220,2012-11-01 00:00:00
12:00 AM,69.8,68.0,94,29.83,5.0,SW,5.8,-,N/A,,Mostly Cloudy,220,2012-11-01 00:00:00
1:00 AM,69.8,66.2,88,29.83,5.0,South,5.8,-,N/A,,Scattered Clouds,190,2012-11-01 01:00:00
2:00 AM,69.8,66.2,88,29.83,5.0,South,5.8,-,N/A,,Scattered Clouds,190,2012-11-01 02:00:00
3:00 AM,69,67,89,29.86,5,SSW,5.8,,,,Partly Cloudy,200,2012-11-01 03:00:00
3:00 AM,69.8,66.2,88,29.86,5.0,SSW,5.8,-,N/A,,Scattered Clouds,200,2012-11-01 03:00:00
4:00 AM,69.8,66.2,88,29.83,-9999.0,North,-9999.0,-,N/A,,Scattered Clouds,0,2012-11-01 04:00:00
5:00 AM,68.0,66.2,94,29.86,6.2,SSW,4.6,-,N/A,,Scattered Clouds,200,2012-11-01 05:00:00
6:00 AM,68,65,89,29.88,6,SSW,3.5,,,,Scattered Clouds,210,2012-11-01 06:00:00
6:00 AM,68.0,66.2,94,29.89,6.2,SSW,3.5,-,N/A,,Scattered Clouds,210,2012-11-01 06:00:00
7:00 AM,68.0,66.2,94,29.89,3.1,Calm,Calm,-,N/A,,Mostly Cloudy,0,2012-11-01 07:00:00
8:00 AM,69.8,68.0,94,29.92,5.0,Calm,Calm,-,N/A,,Mostly Cloudy,0,2012-11-01 08:00:00
9:00 AM,73,69,82,29.94,5,South,6.9,,,,Partly Cloudy,190,2012-11-01 09:00:00
9:00 AM,73.4,68.0,83,29.95,5.0,South,6.9,-,N/A,,Mostly Cloudy,190,2012-11-01 09:00:00
10:00 AM,73.4,69.8,88,29.98,3.7,WSW,5.8,-,N/A,,Mostly Cloudy,240,2012-11-01 10:00:00
11:00 AM,73.4,71.6,94,29.98,1.9,WSW,6.9,-,N/A,,Mostly Cloudy,240,2012-11-01 11:00:00
12:00 PM,75,70,81,29.97,4,WSW,11.5,,,Rain,Rain,250,2012-11-01 12:00:00
12:00 PM,75.2,69.8,83,29.98,3.7,WSW,11.5,-,N/A,,Mostly Cloudy,250,2012-11-01 12:00:00
1:00 PM,77.0,71.6,83,29.95,3.7,WSW,12.7,-,N/A,,Mostly Cloudy,240,2012-11-01 13:00:00
2:00 PM,77.0,69.8,78,29.95,5.0,SW,12.7,-,N/A,,Scattered Clouds,230,2012-11-01 14:00:00
3:00 PM,76,70,78,29.96,5,WSW,10.4,,,,Mostly Cloudy,250,2012-11-01 15:00:00
3:00 PM,77.0,69.8,78,29.95,5.0,WSW,10.4,-,N/A,,Scattered Clouds,250,2012-11-01 15:00:00
4:00 PM,75.2,69.8,83,29.98,5.0,West,11.5,-,N/A,,Scattered Clouds,270,2012-11-01 16:00:00
5:00 PM,73.4,69.8,88,29.98,5.0,West,8.1,-,N/A,,Scattered Clouds,270,2012-11-01 17:00:00
6:00 PM,73,69,84,29.97,5,West,3.5,,,,Mostly Cloudy,260,2012-11-01 18:00:00
6:00 PM,73.4,69.8,88,29.95,5.0,West,3.5,-,N/A,,Scattered Clouds,260,2012-11-01 18:00:00
7:00 PM,71.6,69.8,94,29.98,5.0,West,5.8,-,N/A,,Scattered Clouds,260,2012-11-01 19:00:00
8:00 PM,71.6,69.8,94,30.01,5.0,WSW,4.6,-,N/A,,Scattered Clouds,240,2012-11-01 20:00:00
9:00 PM,72,69,88,30.01,5,SSW,3.5,,,,Mostly Cloudy,210,2012-11-01 21:00:00
9:00 PM,71.6,69.8,94,30.01,5.0,SSW,3.5,-,N/A,,Scattered Clouds,210,2012-11-01 21:00:00
10:00 PM,71.6,69.8,94,30.04,3.7,SW,3.5,-,N/A,,Scattered Clouds,220,2012-11-01 22:00:00
11:00 PM,69.8,68.0,94,30.01,5.0,SSE,3.5,-,N/A,,Scattered Clouds,160,2012-11-01 23:00:00